Theta_e
312 310 310 310 310 315 319 318 315 317 317 313 314 316 316 318 319 319 319 321 323 330 337 340 339 332 331 338 341 344 346 347 344 339 342 351 351 350 352 351 351 348 347 344 336 335 337 337 337 336 335 333 329 326 326 327 331 334 334 334 333 331 324 318 314 311 310 310 310 310 311 311 311 312 314 315 316 319 322 326 330 333 335 337 338 338 337 338 338 338 338 337 336 336 335 335 335
311 309 309 310 312 318 321 318 314 315 315 312 314 317 317 319 319 318 320 322 323 326 331 338 342 337 336 342 342 342 347 349 348 349 349 350 350 350 352 351 351 348 347 345 337 336 337 337 337 336 335 331 326 323 322 323 327 332 332 332 331 327 320 315 311 310 310 309 310 311 311 312 311 311 312 314 317 318 322 324 329 333 334 336 338 338 338 338 338 338 337 336 334 334 333 331 329
309 310 313 313 315 319 320 318 314 313 313 312 314 319 318 318 318 319 321 322 323 326 331 337 341 339 339 341 341 343 347 349 348 349 349 350 351 351 351 351 351 348 346 344 338 337 338 337 336 336 334 330 324 320 319 320 324 328 330 329 326 322 316 311 310 310 310 310 311 311 312 313 312 312 311 313 316 317 322 324 328 333 333 335 337 337 338 338 338 337 336 335 333 332 330 329 326
308 310 315 319 318 318 318 317 316 313 312 312 313 318 318 317 319 319 322 323 323 327 332 338 341 340 342 342 343 347 349 349 348 348 350 349 351 351 351 350 350 348 346 344 341 341 339 336 337 336 334 329 321 318 318 319 322 325 326 325 322 317 312 310 310 310 310 310 311 311 312 313 313 312 312 313 315 317 321 323 325 330 333 335 337 337 337 337 336 334 333 333 332 331 330 329 325
309 311 314 320 321 317 319 318 317 314 313 314 314 317 318 318 320 320 322 322 324 330 332 335 339 342 344 347 348 348 349 349 348 347 349 349 350 350 350 350 349 348 347 345 343 343 339 336 337 335 334 327 319 318 317 318 320 322 322 321 319 314 310 310 310 310 310 310 310 312 312 313 313 312 312 312 314 315 318 320 322 327 329 331 332 333 333 333 331 328 329 330 330 328 326 324 318
312 316 315 318 321 319 319 315 315 314 315 317 316 318 319 318 320 321 322 322 325 330 329 330 335 339 345 348 349 350 348 350 349 347 348 349 349 349 349 349 349 348 347 345 344 343 338 336 336 335 333 324 318 317 317 318 318 319 320 319 316 313 310 310 310 310 310 310 311 311 313 313 313 313 312 312 312 314 316 318 320 323 324 325 325 326 328 327 325 325 325 324 323 320 318 315 311
316 320 318 317 318 318 317 315 315 315 318 319 316 318 319 319 321 321 322 322 324 329 330 332 332 332 343 348 349 348 348 350 349 348 348 349 349 349 349 348 349 348 347 345 344 343 337 336 335 334 332 323 317 316 316 317 317 318 318 317 314 312 311 310 310 310 310 310 311 311 312 312 313 314 312 312 312 313 316 317 319 320 321 322 323 323 324 323 322 321 320 318 318 316 314 311 309
316 320 320 317 317 317 315 316 317 318 319 318 318 318 319 320 321 320 321 322 322 326 328 334 334 332 342 347 349 348 348 350 349 349 349 350 350 349 349 349 349 348 347 345 345 343 337 336 335 334 330 321 317 316 317 317 317 317 317 315 314 313 311 310 310 310 310 310 311 311 312 312 313 313 312 312 312 313 315 317 319 320 321 321 321 322 323 322 320 318 317 317 317 315 311 309 309
315 318 319 316 317 317 315 316 317 319 319 318 318 318 320 320 320 321 320 321 322 322 323 332 336 335 342 346 350 348 349 350 348 349 350 350 350 349 348 349 349 348 346 345 345 342 336 336 335 334 327 319 317 316 316 317 318 317 315 315 313 313 312 311 311 310 310 310 311 311 312 313 314 313 312 312 312 312 314 317 318 320 321 320 321 322 323 322 319 319 319 318 317 314 310 309 309
316 316 318 316 316 316 313 315 316 317 318 317 318 318 320 320 320 321 320 322 321 322 325 334 339 339 342 346 349 349 349 349 349 349 349 349 349 349 349 349 348 347 346 345 345 341 336 336 335 332 324 318 318 316 316 316 317 316 315 315 313 313 312 312 311 310 310 310 311 311 312 314 314 313 312 312 311 312 314 316 318 320 321 321 321 322 323 322 321 321 320 319 316 314 311 309 309
317 316 316 316 314 313 312 314 316 317 317 316 318 319 320 319 320 320 320 322 321 324 331 336 339 341 345 348 349 348 349 349 349 350 349 348 348 348 348 348 347 346 345 345 344 340 336 336 335 329 321 318 318 316 316 315 315 314 313 313 313 314 313 313 312 312 311 311 311 312 313 313 313 312 312 312 311 311 313 316 318 319 321 322 322 322 323 322 323 323 321 320 317 316 314 310 309
317 317 315 313 313 313 314 314 315 316 316 317 318 319 319 319 319 320 321 322 321 327 335 338 338 339 343 347 349 348 349 350 349 350 350 348 348 348 348 347 347 345 344 344 343 341 338 337 333 328 321 318 319 318 318 317 315 315 314 315 315 315 314 314 313 312 312 312 312 313 314 313 314 313 313 312 310 311 312 314 317 318 321 322 322 321 322 324 325 324 322 321 320 319 317 314 312
316 318 315 313 314 315 315 314 315 315 316 318 318 319 319 320 321 321 322 324 324 329 337 340 339 340 345 348 349 348 349 350 350 350 349 349 348 348 347 347 346 344 344 344 343 341 340 338 334 332 325 317 320 323 323 323 322 322 322 323 322 321 319 318 317 315 314 314 313 314 314 314 317 316 313 313 311 311 312 313 315 317 319 321 323 322 322 325 326 325 324 324 322 320 319 318 316
316 318 316 314 316 316 315 314 314 314 316 318 318 318 321 327 328 326 325 329 332 337 342 343 342 341 346 348 348 349 349 350 350 349 349 349 349 349 348 347 346 345 345 344 343 341 340 339 336 333 325 319 325 329 329 328 329 330 330 330 329 328 327 325 324 322 319 317 315 314 314 318 322 319 313 313 311 310 311 313 313 315 316 318 323 322 321 324 326 326 326 326 323 320 320 320 320
317 317 316 315 316 315 314 315 315 315 317 318 318 318 324 331 334 333 334 334 340 345 344 344 344 341 344 345 347 349 349 349 350 349 349 349 349 349 348 347 346 346 345 344 343 341 341 340 339 334 324 324 332 335 335 333 332 333 333 333 331 331 330 329 328 326 325 322 319 315 315 319 321 318 315 314 312 311 311 313 313 313 313 316 321 324 321 322 325 326 327 328 325 321 319 319 321
317 317 316 315 315 314 315 315 316 317 317 318 318 319 323 330 335 338 340 339 343 346 346 345 345 344 345 343 346 348 348 349 350 349 349 349 349 349 348 347 346 346 345 344 343 342 341 340 340 337 328 329 336 338 337 336 335 335 336 334 332 331 330 330 330 329 329 327 325 321 320 322 320 316 316 315 314 312 310 312 313 313 313 313 319 325 323 321 324 326 327 328 327 323 319 318 318
316 317 316 315 315 315 315 315 316 317 318 319 319 319 320 329 337 341 342 343 344 346 348 348 346 347 346 346 348 347 347 349 349 349 350 349 349 349 348 348 347 347 345 344 343 342 342 341 342 340 334 333 337 338 337 337 337 336 337 336 333 331 330 331 332 332 331 330 329 328 329 332 328 322 320 318 317 315 311 311 312 313 314 312 316 323 325 322 323 326 327 327 327 324 321 319 317
316 316 315 315 315 315 316 317 318 318 318 318 319 318 318 326 335 340 342 342 344 346 347 347 348 348 347 348 349 346 347 348 349 349 350 350 349 348 348 347 347 346 345 345 343 342 342 342 342 340 339 338 338 338 338 337 337 337 338 337 336 335 333 334 334 334 332 331 331 332 335 337 334 331 329 323 319 318 314 311 311 312 313 313 314 320 325 324 323 326 328 328 327 325 322 319 317
316 316 316 315 316 317 317 317 318 318 318 318 319 318 317 321 327 333 335 338 341 341 344 347 347 347 348 348 347 347 348 349 349 349 349 349 348 348 347 347 347 346 345 344 342 342 342 341 341 340 340 340 339 338 338 338 337 338 338 338 338 337 336 336 336 335 335 334 332 333 337 336 335 335 335 330 322 320 317 313 310 312 314 314 314 319 324 325 325 327 328 329 328 326 325 323 320
316 317 316 316 317 317 317 316 318 318 318 319 318 317 318 318 320 326 330 333 335 334 340 344 346 348 349 348 347 347 348 349 348 348 347 347 345 346 346 346 346 345 345 343 341 342 341 340 340 340 339 339 339 338 338 337 337 338 338 337 338 338 338 337 336 336 336 335 333 334 336 335 335 334 335 334 326 321 319 315 312 310 314 314 314 320 325 326 328 329 329 329 327 328 330 330 329
316 317 316 316 317 316 316 316 317 318 318 318 318 318 318 318 319 324 329 329 329 331 335 337 342 348 349 348 348 347 348 347 347 346 346 346 345 345 346 346 345 344 344 343 341 340 340 339 339 339 339 339 338 337 338 338 337 338 339 338 338 339 338 337 336 336 336 336 334 335 335 334 335 334 334 334 329 326 323 319 315 311 313 316 317 322 326 327 328 329 330 329 330 332 333 334 332
317 318 315 317 317 315 316 317 317 317 317 317 318 317 317 318 319 325 330 325 325 328 331 335 340 346 348 348 347 346 347 346 346 346 345 346 345 345 346 345 345 344 343 342 341 340 339 339 339 339 339 339 337 335 337 338 339 339 339 338 338 338 337 336 336 336 336 335 334 335 334 333 334 334 334 334 332 331 330 325 322 315 313 315 319 327 329 328 329 330 330 331 333 334 333 332 329
316 317 316 318 317 316 317 317 317 317 318 317 318 317 316 318 317 323 328 323 327 330 331 337 341 344 348 348 347 346 346 346 345 346 345 345 346 346 346 345 344 344 343 342 341 340 339 339 339 339 338 339 337 335 337 339 340 340 339 339 338 338 337 336 335 336 335 333 333 335 334 332 333 334 333 334 333 333 332 330 327 321 315 314 320 330 331 329 331 332 331 332 333 333 332 330 327
314 315 317 317 316 317 317 317 317 317 317 317 317 316 316 317 317 321 324 324 332 333 334 341 344 345 348 347 346 346 346 346 345 345 345 345 346 345 345 344 343 343 342 342 341 341 340 340 340 339 339 338 338 336 338 340 340 340 340 339 338 338 337 336 335 335 334 332 332 335 335 333 334 334 332 333 333 333 331 330 331 327 324 323 324 329 331 330 332 333 332 332 333 333 331 330 330
314 314 317 317 316 317 316 316 317 317 317 317 316 316 317 317 316 318 323 330 336 337 339 345 347 346 347 346 346 346 346 345 345 345 345 345 345 345 344 343 343 342 341 341 340 340 340 340 340 340 339 339 339 338 339 340 339 339 339 338 338 337 336 335 335 334 333 332 332 334 335 333 334 335 333 333 334 333 331 332 333 331 330 328 324 327 331 330 331 333 332 332 333 333 331 329 330
314 314 316 316 316 317 316 316 317 317 317 317 316 317 317 316 316 318 325 333 338 342 344 347 348 348 347 346 346 346 345 345 345 345 344 344 344 344 343 343 343 341 340 341 340 339 339 339 339 339 339 339 339 339 339 339 338 337 337 338 337 336 334 335 335 334 333 333 333 335 335 334 334 334 333 332 332 330 330 332 332 332 331 327 323 325 328 329 331 331 331 332 333 333 332 329 329
316 315 316 317 316 317 317 317 317 317 317 317 316 316 317 316 315 317 326 335 340 343 346 348 348 348 347 346 346 345 344 345 345 345 344 344 343 344 344 343 343 341 341 341 340 340 339 339 339 339 338 339 339 339 338 336 336 336 336 336 336 335 334 335 335 333 333 333 333 335 336 335 334 332 331 331 331 329 330 332 331 331 331 328 325 323 324 327 330 331 331 332 333 332 332 330 329
317 316 316 316 316 317 317 317 317 317 317 317 316 317 317 316 316 322 332 339 343 343 345 347 347 346 346 346 346 344 345 345 344 344 344 344 343 343 344 343 342 342 342 341 341 341 340 339 340 339 338 338 339 337 335 334 335 336 335 335 335 335 334 334 334 333 332 333 334 335 335 335 333 331 330 330 331 330 330 331 330 330 330 330 328 325 324 324 327 329 330 331 330 331 331 329 330
316 316 315 316 316 316 316 316 317 317 317 316 316 316 316 316 319 329 339 341 343 343 343 345 345 345 346 346 345 344 345 344 344 344 344 344 343 343 343 343 342 342 342 341 340 340 339 339 339 339 337 338 337 335 333 333 334 335 335 335 335 334 334 334 334 333 332 333 334 335 335 335 333 331 330 329 331 332 331 330 330 329 329 330 330 329 328 324 324 326 327 329 329 330 330 329 329
315 315 315 315 315 314 316 316 316 317 316 316 315 314 315 317 318 325 335 342 342 340 341 343 344 344 344 346 344 343 344 344 343 343 344 344 343 342 341 340 340 340 340 340 340 339 338 338 338 338 337 337 336 334 333 334 335 335 335 335 334 334 335 334 332 331 331 333 335 336 335 334 333 332 330 328 330 332 331 330 330 329 328 328 329 329 329 327 325 324 323 325 327 329 329 327 327
314 314 314 315 313 313 316 317 316 317 316 316 315 314 315 320 321 321 330 341 341 337 338 341 344 343 344 344 342 342 343 343 343 343 343 343 343 342 340 339 339 339 338 338 339 338 338 338 338 337 337 336 335 332 331 333 334 335 335 335 334 334 335 334 332 331 331 332 335 337 336 334 333 332 329 327 330 331 331 331 330 330 329 328 328 328 329 329 328 326 324 325 326 327 327 327 327
314 313 312 313 313 313 316 317 317 317 316 316 315 315 317 321 325 324 328 339 340 336 337 341 343 344 343 343 342 342 343 343 342 342 343 342 342 342 341 341 339 339 339 338 338 337 337 338 337 337 336 335 335 332 332 332 332 334 335 335 334 334 334 334 333 332 331 332 335 337 336 333 332 330 328 326 329 331 331 332 332 331 330 329 329 327 327 329 329 329 328 327 327 327 328 329 329
314 313 312 312 313 313 314 315 317 317 316 316 316 316 319 323 327 328 330 337 338 336 338 340 342 343 343 342 342 342 342 342 342 342 342 342 341 342 342 342 340 339 339 338 338 337 338 338 337 337 336 335 335 333 333 332 331 334 335 334 333 332 333 333 333 332 331 332 335 336 333 331 331 329 327 326 329 331 331 332 333 331 330 329 328 326 325 327 329 329 329 328 328 329 329 329 327
313 313 313 313 313 313 313 314 316 317 316 316 316 317 322 324 328 330 332 336 335 335 339 340 341 342 342 341 341 342 342 342 342 341 341 341 341 341 341 341 341 340 339 337 337 337 338 338 338 337 337 336 335 334 334 333 333 334 334 334 332 331 331 332 334 333 331 331 333 333 330 329 330 328 326 327 329 331 331 331 332 331 330 328 328 326 325 326 328 329 328 328 328 328 330 329 326
313 312 314 313 313 314 314 314 315 316 316 316 316 319 324 325 327 330 333 335 335 335 339 340 340 341 341 340 341 341 341 341 342 341 341 341 341 341 340 340 340 340 339 338 337 337 338 338 338 338 338 337 337 337 336 334 333 333 333 333 333 332 332 332 333 332 330 330 330 329 328 328 328 327 327 328 329 330 330 331 331 331 330 328 329 328 326 326 328 328 327 327 328 328 329 329 328
314 313 314 313 312 313 315 315 316 316 316 316 316 320 326 327 327 330 332 334 336 337 339 340 340 340 340 340 341 341 340 341 341 341 341 341 340 340 340 340 340 340 340 340 338 338 338 338 338 339 338 338 338 337 335 334 334 333 333 332 332 333 333 332 331 330 330 330 329 328 326 326 327 328 328 329 330 330 330 330 330 331 330 329 329 328 327 327 328 328 327 327 328 326 326 327 329
315 314 314 313 312 313 315 315 316 317 317 318 319 323 328 328 328 331 332 333 335 337 338 339 338 338 339 340 341 341 341 340 340 340 341 341 340 340 340 340 341 341 341 341 340 339 338 338 338 339 339 338 338 337 336 336 335 334 334 332 332 333 333 332 331 330 330 330 330 328 326 326 328 328 329 330 330 330 330 329 330 331 330 330 329 328 327 326 327 327 327 327 326 326 326 328 330
314 313 313 313 313 313 315 315 315 316 319 320 322 324 328 329 328 330 332 332 332 335 336 337 337 337 337 339 340 340 341 340 340 340 340 341 340 340 340 341 341 340 340 340 339 339 338 338 338 338 339 338 338 338 338 338 337 337 336 335 335 334 334 333 332 330 329 328 329 329 328 327 328 329 330 330 330 330 330 330 331 330 330 330 330 329 327 326 326 326 328 327 326 328 330 331 331
315 314 313 312 313 314 315 315 316 316 318 320 322 325 328 329 328 329 332 332 332 333 333 334 335 335 336 337 338 339 340 340 339 340 340 340 340 340 340 341 340 339 338 338 337 337 337 338 338 338 338 337 338 339 338 338 338 337 336 335 335 335 335 334 333 331 329 327 328 330 329 327 329 331 331 330 330 331 331 331 331 330 331 330 330 330 329 328 328 328 329 329 329 331 333 332 331
314 314 312 312 313 314 313 315 317 318 319 321 322 326 328 329 328 329 331 332 332 332 332 333 334 334 335 335 337 337 338 338 339 339 339 339 339 339 338 338 338 337 337 336 336 336 336 336 337 337 337 336 337 337 337 337 336 336 335 334 334 334 334 334 333 332 330 328 328 330 330 330 330 331 332 332 331 331 332 331 331 331 332 331 330 331 330 330 330 329 331 332 331 332 333 333 332
314 314 313 313 314 314 314 315 317 319 321 323 322 322 325 329 328 328 330 331 332 332 331 333 333 334 334 335 335 335 335 336 337 338 338 337 337 337 337 336 336 336 335 335 335 335 335 335 335 336 336 336 336 335 335 335 334 334 333 333 333 333 334 334 334 333 333 331 330 330 330 331 331 331 332 332 332 332 332 331 332 333 333 331 330 331 330 330 330 330 331 332 332 332 333 332 332
314 315 314 314 314 315 316 317 317 318 320 323 321 317 321 329 329 329 329 329 330 331 331 333 333 334 334 334 335 335 335 335 336 336 336 336 335 335 335 335 335 335 334 334 335 335 335 335 335 336 335 335 334 333 333 334 333 333 332 332 332 332 332 333 333 333 333 333 332 331 330 331 332 332 333 333 333 333 332 332 333 334 334 332 330 330 329 329 330 330 331 332 333 332 332 332 332
313 315 315 315 315 315 317 317 317 316 317 322 321 316 319 327 329 329 329 328 329 329 330 332 333 333 333 333 333 333 334 334 334 334 334 334 333 333 334 334 334 333 333 334 334 334 335 335 335 334 334 333 333 332 332 332 332 332 332 332 331 331 332 332 332 332 331 332 333 332 330 331 332 332 333 333 333 333 332 332 333 333 333 332 331 330 328 327 329 331 330 331 332 333 333 333 333
313 315 315 315 315 315 316 316 316 316 318 320 320 317 319 323 327 329 329 329 329 328 329 331 332 332 333 332 332 332 332 332 332 332 332 332 332 332 333 333 332 332 333 333 333 333 333 334 334 333 333 332 333 332 331 332 332 332 332 332 331 331 332 332 332 331 331 332 333 333 331 331 332 332 332 331 331 332 332 332 332 332 332 332 332 331 330 328 329 330 330 330 332 333 332 333 333
314 315 315 315 314 315 316 315 315 317 317 316 317 317 317 321 327 328 328 329 329 328 328 330 331 331 331 331 330 330 329 330 330 329 330 330 330 331 331 331 331 331 332 332 332 332 332 332 333 332 332 331 332 332 332 331 331 331 332 333 332 332 332 332 332 332 333 333 333 333 332 333 333 332 332 331 330 331 332 332 332 331 331 332 332 331 332 331 331 332 332 332 331 331 331 332 333
315 314 314 314 314 314 316 315 315 316 316 314 315 316 316 321 327 327 328 329 328 329 328 328 329 329 328 328 328 327 327 327 327 327 329 329 329 329 330 330 330 330 331 331 331 331 331 332 332 332 331 330 331 332 332 332 332 331 331 332 333 333 332 332 332 332 332 331 331 332 332 333 333 332 331 332 332 331 331 331 332 331 332 332 332 332 333 333 333 332 332 331 330 331 331 331 332
314 314 314 314 314 315 315 316 316 315 314 314 314 316 317 319 324 327 328 328 328 329 328 327 328 328 326 326 325 325 325 325 325 326 328 327 327 328 328 328 329 330 330 330 330 330 330 330 330 331 331 330 331 331 331 331 333 332 332 332 332 332 332 332 333 331 327 328 329 329 329 331 332 331 332 333 332 331 331 331 331 331 332 332 332 332 332 332 333 332 331 330 330 331 332 331 332
314 314 314 313 313 314 314 315 316 314 314 314 315 318 317 318 324 328 328 327 328 328 327 327 326 326 324 324 323 323 323 323 324 325 326 326 327 327 326 327 327 328 328 328 328 328 328 328 329 329 329 329 330 330 330 330 331 331 331 332 332 332 332 332 333 332 328 329 329 327 326 328 330 331 332 332 332 332 331 331 331 331 331 331 331 331 331 331 332 332 332 331 331 331 331 332 332
314 313 313 312 312 313 313 314 314 314 315 316 317 316 317 321 326 328 327 327 328 328 327 326 325 324 323 322 321 321 321 321 322 323 324 325 326 326 325 324 324 325 325 326 326 326 327 327 327 328 328 328 328 329 330 330 330 331 331 332 332 332 331 331 332 333 331 330 329 326 325 326 327 329 329 330 331 331 331 331 331 331 331 331 330 331 330 329 330 332 332 332 331 331 332 331 331
313 313 312 312 312 313 314 314 314 315 316 317 318 316 320 326 328 327 328 328 327 327 326 325 324 322 321 320 320 319 319 320 321 322 322 323 324 324 323 323 322 322 323 324 325 325 325 326 326 327 327 328 328 328 328 328 329 329 330 330 331 332 332 331 331 332 330 328 327 326 325 325 326 327 328 328 329 330 331 330 330 330 331 331 330 330 330 330 331 332 333 332 331 332 332 330 330
313 314 313 312 312 313 314 313 313 315 316 317 318 318 322 327 328 327 327 326 326 325 324 323 322 321 321 320 319 318 318 318 319 319 320 320 321 321 321 321 321 322 322 323 324 325 325 326 326 326 326 326 326 326 327 327 327 327 327 327 329 330 331 330 331 331 330 329 327 326 325 326 325 325 326 326 327 330 330 330 330 331 331 331 331 330 330 331 331 331 332 331 330 332 332 331 332
314 314 313 313 313 314 314 315 317 315 316 318 321 324 326 327 327 327 327 326 325 324 323 322 321 321 321 319 318 318 317 317 318 318 318 318 318 318 319 319 320 322 323 323 324 324 325 325 326 326 326 326 326 326 326 326 326 326 326 326 328 330 330 330 331 331 330 330 329 328 327 327 326 326 325 324 325 328 330 331 331 331 331 330 330 330 329 330 330 330 331 331 330 332 333 332 332
314 313 312 314 315 316 314 316 319 316 316 321 324 327 328 328 327 326 326 326 325 323 323 321 320 320 320 319 318 317 317 317 317 317 317 317 317 317 318 319 319 321 322 322 323 323 323 324 324 325 325 325 326 326 326 326 326 326 326 326 328 330 330 329 330 331 330 330 330 330 329 328 326 326 325 324 324 327 329 330 331 331 331 330 330 329 328 330 330 330 330 332 332 332 333 332 331
313 312 314 315 316 317 314 314 316 314 317 322 323 326 328 327 328 328 326 325 324 322 322 321 321 320 319 317 316 316 317 316 316 316 316 317 317 317 318 318 318 318 319 320 321 321 322 322 323 323 324 324 324 325 325 326 326 326 326 326 327 328 329 329 329 330 330 330 331 330 330 328 326 326 326 324 324 327 328 328 329 330 330 330 329 328 328 330 331 329 330 332 333 333 332 332 331
314 313 314 314 314 315 314 314 315 313 317 323 322 324 327 325 326 329 327 326 324 322 322 321 321 320 318 317 316 316 316 315 315 314 315 316 316 317 316 316 316 316 317 318 318 318 320 321 321 321 322 322 322 322 323 324 324 325 326 326 326 327 328 329 329 330 330 330 330 329 328 325 324 326 328 327 325 326 327 327 327 329 330 329 329 328 328 330 331 330 330 332 333 333 332 332 332
314 313 314 314 314 314 314 314 314 313 316 322 323 323 324 323 326 329 327 325 323 322 321 320 320 318 317 316 315 315 314 314 313 313 314 315 315 315 315 314 315 315 315 316 317 317 318 319 320 320 320 320 320 321 321 322 323 324 326 326 326 327 328 329 329 329 329 330 329 328 327 326 324 326 328 329 327 326 327 327 327 328 328 328 329 329 329 330 330 330 331 331 332 333 333 331 332
313 313 312 313 314 314 315 315 314 313 314 320 323 322 321 324 326 328 326 324 323 322 321 319 318 317 315 314 314 314 314 313 313 313 313 313 313 313 313 313 314 314 314 315 316 316 317 318 319 319 319 320 320 320 321 321 322 323 326 327 326 326 328 328 329 329 330 330 329 327 327 327 326 327 329 330 329 328 328 328 328 329 328 329 330 331 330 331 332 331 331 331 332 333 332 331 332
313 313 312 313 314 314 314 314 315 315 314 317 319 320 323 326 326 326 326 324 323 323 321 319 317 316 314 313 313 313 313 313 312 312 312 312 312 312 312 313 313 313 314 314 314 315 315 316 317 318 318 319 320 320 321 321 321 323 325 326 327 327 328 328 329 329 330 330 329 328 327 327 327 328 329 330 330 330 328 328 329 329 329 330 330 329 330 332 332 331 332 332 333 333 332 331 332
Wind_Speed
3 3 3 4 5 5 5 5 5 4 4 7 7 6 1 3 3 3 3 1 1 3 5 5 2 5 4 4 4 7 12 10 6 3 2 4 8 13 11 13 18 21 20 20 25 25 23 21 19 17 16 15 15 15 17 17 18 17 16 15 13 11 9 8 8 10 11 11 11 11 11 12 13 13 13 15 16 17 18 19 19 19 20 20 19 18 18 18 18 17 17 16 16 16 15 14 14
3 4 4 5 7 4 4 5 6 3 6 7 7 5 2 4 3 4 0 3 4 5 5 4 1 3 4 5 4 2 10 12 10 8 6 9 12 12 11 14 18 21 20 20 24 25 24 22 19 17 15 14 14 15 16 17 18 17 16 15 13 11 10 9 10 11 12 11 11 12 11 12 13 13 13 14 15 16 17 18 19 18 20 21 19 18 18 17 16 15 15 15 15 14 14 13 12
4 5 5 5 6 4 3 4 6 5 6 8 5 2 2 3 5 3 4 5 7 6 2 1 1 2 4 5 0 3 7 10 9 9 9 11 11 12 14 15 18 22 20 19 24 24 23 22 19 17 15 14 14 15 16 16 17 17 16 14 13 12 11 11 11 12 12 12 12 12 11 11 12 13 13 14 14 15 16 17 18 18 20 21 19 17 16 15 15 14 13 13 13 13 12 11 10
5 6 7 5 5 6 5 5 6 6 6 7 3 4 2 2 3 4 4 6 8 3 1 1 2 2 3 0 3 5 8 8 7 8 9 9 10 14 16 16 18 21 18 18 20 19 21 22 18 16 15 13 14 15 15 16 16 16 16 15 14 13 12 12 12 12 12 11 12 12 11 11 12 12 13 14 14 14 15 16 17 17 18 19 19 18 17 15 14 13 13 12 11 11 11 10 10
6 7 9 6 5 3 4 4 4 7 6 5 2 5 3 2 5 3 4 7 6 2 1 3 2 4 3 8 4 2 6 5 6 6 9 10 12 16 16 17 18 19 18 17 18 16 19 21 17 16 14 13 13 15 16 16 17 17 17 16 15 14 14 13 13 12 12 11 11 11 11 11 12 11 12 13 13 14 14 15 17 17 16 16 17 17 16 15 13 13 13 12 10 10 10 10 11
7 7 8 6 5 2 4 6 5 8 6 4 3 5 5 3 3 4 5 6 3 2 2 4 1 3 5 8 8 8 4 3 6 6 8 11 14 16 16 16 16 18 18 18 17 15 19 19 16 16 14 13 14 15 16 17 17 17 17 17 16 16 15 14 14 13 12 11 11 11 11 11 12 12 11 12 13 13 13 14 15 16 16 15 15 15 15 14 14 13 13 12 11 11 11 12 12
8 7 7 6 4 3 6 7 6 6 2 2 5 2 3 1 4 5 5 3 1 1 1 2 4 2 6 7 8 10 5 5 5 6 9 11 15 16 16 16 16 17 18 18 16 15 19 19 16 16 14 13 14 16 16 17 17 17 17 17 17 16 16 15 14 13 12 12 11 11 10 10 11 12 12 12 12 13 12 13 14 15 15 15 14 15 16 16 15 14 14 13 13 12 12 13 14
9 6 5 6 4 5 7 7 6 4 1 0 4 5 4 5 6 7 6 3 1 2 2 1 5 5 5 5 5 8 6 7 6 9 11 12 14 16 17 16 16 17 17 17 16 16 20 18 17 16 13 13 14 15 16 16 16 16 17 16 16 16 16 15 14 13 13 12 11 11 10 10 11 12 11 12 13 13 12 12 13 14 14 15 15 16 17 17 17 16 15 14 13 13 14 16 17
9 6 4 6 5 4 6 7 6 5 4 3 4 5 6 8 8 7 6 5 3 3 4 3 5 4 7 7 8 8 5 7 9 11 12 13 14 16 17 15 16 16 16 16 15 18 20 18 16 14 13 13 14 14 14 15 15 16 16 15 15 15 14 14 13 13 13 13 11 11 10 10 11 12 11 11 12 13 12 12 12 13 14 15 16 17 17 17 17 16 15 14 14 15 16 17 18
8 7 4 4 5 5 7 6 4 3 4 4 4 5 6 7 7 7 7 5 4 4 3 5 4 4 9 8 9 6 4 7 11 11 12 13 14 15 16 15 15 16 16 15 15 18 20 18 15 13 12 13 14 13 13 13 14 15 15 14 14 13 13 13 13 13 13 12 12 11 11 10 11 11 11 11 12 13 12 12 11 11 13 15 16 17 17 17 17 16 15 14 15 16 17 18 19
8 7 4 4 6 6 6 4 4 3 1 3 3 2 4 6 7 7 8 5 5 5 6 8 6 8 10 7 7 5 5 8 11 12 12 13 13 14 15 14 14 16 16 15 15 17 19 18 15 13 13 14 14 12 12 12 13 13 13 13 12 11 12 12 12 12 12 12 12 11 11 11 10 10 10 11 12 12 12 11 10 10 11 14 15 17 17 17 16 15 14 15 16 17 18 18 19
7 6 5 6 6 5 4 3 3 2 2 3 1 3 5 6 6 5 6 6 7 7 8 8 7 10 8 7 7 6 6 9 12 12 13 13 13 13 13 13 13 15 15 15 14 15 18 17 15 13 14 15 14 12 12 12 13 12 12 11 10 10 11 11 10 10 10 10 10 11 11 11 10 9 9 11 12 12 12 11 10 9 10 12 14 16 17 16 15 14 14 15 17 17 19 19 19
8 4 5 5 4 4 3 3 2 2 3 3 3 6 6 5 5 3 3 6 9 9 9 7 7 8 5 8 8 7 8 10 13 13 13 13 13 13 12 12 13 14 14 15 14 14 16 16 15 14 14 15 13 12 12 12 12 12 11 11 11 11 11 10 9 9 8 8 9 10 11 11 10 9 9 10 12 12 13 12 11 10 9 10 12 15 16 16 15 13 14 16 17 17 19 19 19
9 5 6 4 3 4 4 4 2 4 3 5 6 8 5 1 2 2 4 8 7 7 10 7 6 7 7 7 7 10 11 12 14 14 14 12 12 12 12 12 13 14 15 15 15 15 16 16 16 15 15 16 14 13 12 12 12 11 11 11 10 10 10 10 9 9 8 7 8 9 10 10 9 9 10 10 11 12 13 13 12 10 9 8 10 13 15 16 15 14 14 15 16 17 18 18 19
8 5 5 5 3 4 5 4 2 4 3 6 6 9 3 2 2 1 3 4 7 7 9 7 2 3 6 5 6 13 15 14 14 14 15 13 12 12 12 12 12 14 15 15 15 16 16 17 16 15 16 16 15 14 13 13 12 12 11 10 10 9 9 9 9 9 8 7 7 7 8 9 8 9 9 10 10 12 13 13 13 11 10 8 9 11 13 14 14 13 14 14 14 15 16 17 18
8 5 5 5 5 4 5 4 3 4 4 7 7 9 3 4 2 1 1 2 9 7 5 6 3 4 5 3 7 17 18 16 15 15 15 13 13 12 12 11 12 14 15 15 15 15 16 17 17 16 16 16 15 15 14 14 13 12 11 10 9 9 9 9 9 8 8 7 6 6 6 6 5 7 9 10 10 11 13 14 14 12 11 9 8 10 11 12 12 12 13 13 12 12 14 16 16
8 6 6 5 5 4 4 7 4 2 6 7 8 10 5 4 3 2 3 4 9 8 7 8 7 8 8 7 11 18 18 17 16 15 14 13 14 13 12 11 12 14 15 15 15 15 15 16 16 16 17 16 15 15 15 14 13 13 11 10 9 9 9 8 8 7 7 7 6 6 6 6 4 4 6 9 10 11 12 14 15 13 13 10 9 10 9 11 11 10 11 11 11 10 11 13 14
9 6 6 5 6 4 3 5 2 2 4 7 8 10 8 3 3 2 4 7 10 10 9 9 9 9 8 10 14 17 17 17 15 15 14 13 14 14 13 12 13 14 14 14 14 13 14 15 16 16 16 15 15 14 14 13 13 12 11 10 9 9 8 7 7 7 7 7 7 7 8 8 6 5 4 7 9 11 12 14 15 15 13 11 11 11 10 9 10 9 9 10 9 8 9 11 12
10 6 5 6 5 2 1 0 2 2 4 7 7 8 9 5 3 1 4 8 10 9 9 8 8 8 9 12 15 16 16 15 15 14 14 13 13 13 12 12 12 12 13 13 14 13 14 15 15 15 15 15 14 13 13 13 12 12 10 9 8 8 8 7 7 6 6 6 7 8 9 10 9 8 7 7 8 10 12 13 14 15 14 11 12 13 11 9 9 9 8 8 7 6 7 8 10
11 7 5 6 5 2 1 2 2 3 6 6 6 8 6 4 4 4 3 8 8 7 8 7 8 9 11 14 15 15 15 14 14 14 14 14 13 13 12 11 10 11 12 13 15 17 16 16 15 15 16 17 15 13 12 12 12 11 10 9 8 8 8 8 7 7 7 7 7 9 10 11 11 11 10 7 7 8 10 12 13 15 15 12 14 15 12 10 9 9 9 8 7 6 6 6 7
9 8 7 4 2 4 4 4 3 2 5 6 8 7 4 4 4 3 5 8 6 6 7 6 8 12 14 16 16 16 15 14 14 13 14 14 12 12 11 9 8 9 12 12 15 18 18 18 18 17 18 19 17 15 13 12 12 11 11 10 9 9 9 9 9 8 9 8 8 9 9 10 12 12 11 8 6 7 9 11 13 15 17 16 16 16 13 11 9 9 9 9 7 7 6 6 6
6 9 12 6 3 5 3 3 2 2 5 7 8 6 5 5 2 1 3 3 5 6 5 5 7 11 15 17 17 16 15 15 14 13 13 12 11 11 10 9 8 10 12 12 14 16 18 18 19 19 19 20 18 16 16 14 14 13 13 12 11 11 10 11 10 10 10 10 10 10 10 11 11 12 12 10 8 8 7 9 11 14 17 18 17 14 13 12 10 10 10 9 8 8 8 7 7
8 9 12 10 9 7 3 3 2 3 7 7 7 6 7 5 1 2 2 3 6 4 3 5 8 10 14 17 17 16 15 14 14 13 12 10 10 11 11 10 9 10 12 13 14 16 18 19 19 20 19 19 18 17 17 16 15 15 14 14 13 12 11 12 12 12 12 11 11 11 11 11 11 12 13 12 10 9 8 8 9 10 14 17 17 13 11 12 11 11 11 10 9 8 7 6 5
11 8 9 11 12 9 7 6 5 5 8 8 7 7 7 4 2 3 2 4 3 2 5 7 9 12 14 17 16 16 15 14 13 12 10 8 8 10 12 12 11 12 13 14 15 15 16 18 19 20 19 19 19 19 18 16 16 15 16 15 14 13 12 12 12 13 12 11 11 11 11 11 10 11 12 12 10 9 9 8 8 9 11 14 17 14 11 13 12 12 12 11 10 9 8 6 5
14 10 7 10 9 9 8 7 7 7 8 8 7 7 5 2 1 3 5 3 1 3 7 8 11 13 14 16 16 15 14 13 12 11 10 8 8 10 11 11 11 13 13 13 14 15 16 17 18 19 18 18 17 16 15 15 15 16 16 15 15 14 12 11 12 13 12 11 12 12 12 11 10 9 10 10 9 9 9 8 8 9 11 13 15 14 12 14 13 12 12 11 10 9 8 7 5
13 15 11 10 9 8 7 8 8 7 8 8 6 6 3 2 3 4 5 3 3 5 8 9 11 13 13 14 14 14 13 13 12 10 9 8 8 9 10 11 10 10 10 11 13 15 16 16 16 17 17 16 15 13 13 14 15 15 14 15 15 13 11 12 12 12 12 12 13 14 13 11 10 9 9 9 8 9 9 9 9 9 11 12 13 13 13 14 13 13 12 11 10 9 8 7 6
9 16 15 11 11 9 8 8 8 7 9 9 7 6 4 5 6 4 7 5 6 8 9 10 11 12 12 13 12 12 12 12 11 9 9 8 8 9 9 9 9 8 7 8 10 12 14 13 13 14 14 14 14 13 13 13 13 13 12 13 14 12 11 12 12 12 12 12 14 15 13 11 10 9 9 9 8 9 9 9 10 10 11 11 12 13 14 14 14 14 13 12 11 9 8 8 6
5 10 13 12 12 10 10 11 9 8 8 7 8 6 5 7 6 6 10 8 7 8 9 11 11 11 11 12 11 11 11 11 10 9 9 8 7 7 8 7 7 7 6 6 8 10 11 11 11 12 12 13 13 12 12 12 11 11 11 11 12 12 12 12 11 11 12 13 15 15 14 12 11 10 9 9 8 8 9 10 10 11 11 11 12 13 13 15 16 15 15 14 12 10 9 9 8
6 7 8 10 10 10 12 12 10 9 6 5 7 6 8 8 4 9 9 6 6 6 9 10 10 10 11 11 11 11 11 10 9 9 8 6 4 4 6 6 5 6 5 6 9 10 11 11 12 12 12 12 12 12 12 11 10 11 11 11 11 12 13 12 11 11 13 14 15 17 16 13 12 11 9 9 9 9 10 11 11 11 11 12 12 13 13 14 16 16 16 14 12 11 10 10 9
9 9 7 7 8 9 13 12 9 9 6 6 8 7 9 8 9 7 5 5 5 6 8 10 9 9 9 9 10 10 9 8 8 8 6 5 3 3 3 3 5 5 5 5 7 9 10 12 12 12 13 13 13 13 13 11 11 11 11 11 12 12 12 13 12 13 14 15 15 17 16 14 12 11 10 10 11 11 11 11 11 12 12 12 12 13 13 12 14 15 16 15 13 12 11 11 11
9 10 7 6 6 8 13 12 11 10 6 8 10 6 7 10 10 5 5 6 5 6 8 9 8 7 7 8 9 9 7 6 7 6 5 4 3 2 2 0 2 3 3 4 6 7 9 11 12 13 13 14 14 14 13 12 12 12 11 11 12 12 12 12 13 13 15 15 14 15 15 14 13 12 11 11 12 12 12 11 11 12 12 12 12 13 13 13 13 13 14 15 14 13 12 12 11
8 9 8 7 6 8 12 11 12 9 7 10 11 5 8 10 9 6 5 7 5 6 8 8 7 6 6 8 8 8 7 5 6 5 4 4 2 2 1 1 1 1 3 3 4 6 8 10 11 12 13 13 13 12 11 12 13 12 11 11 11 12 12 12 13 13 14 14 14 14 14 14 13 12 12 13 13 13 12 11 11 12 11 11 11 13 14 14 13 13 13 14 13 13 12 11 10
8 8 8 9 9 8 11 10 11 8 7 11 12 5 7 9 9 8 5 7 6 7 9 8 8 6 6 8 8 7 6 4 5 4 3 3 2 2 1 1 2 1 2 3 4 4 6 8 9 10 12 12 12 12 12 14 15 13 12 13 12 12 13 13 13 13 14 14 14 14 14 14 14 13 13 14 14 14 13 12 11 11 10 10 11 12 14 15 15 15 15 15 14 13 12 11 10
8 9 7 9 11 8 10 10 11 10 8 12 12 3 8 9 9 10 6 5 7 8 9 8 7 7 6 7 7 7 6 4 4 4 4 3 2 2 2 1 2 2 2 3 4 4 4 5 7 8 10 11 11 12 12 15 15 14 13 14 13 13 14 14 13 14 15 16 16 16 15 15 15 14 14 14 15 14 14 14 12 11 10 10 10 11 13 16 17 18 18 17 16 14 12 11 11
10 10 7 8 11 8 10 11 11 13 11 12 11 5 9 9 9 11 9 5 5 6 7 8 8 7 7 6 6 6 5 4 4 3 4 4 2 1 2 2 1 1 1 2 4 4 4 4 5 7 8 8 9 11 12 15 14 13 14 15 15 14 15 15 15 16 17 17 17 17 16 16 17 16 16 16 16 15 15 15 14 12 12 11 11 11 12 15 17 18 19 17 16 14 12 12 12
12 12 8 9 10 7 8 10 8 11 13 11 11 8 9 9 9 10 10 8 7 7 6 7 8 8 7 6 6 6 5 4 4 3 3 2 1 1 2 2 2 2 2 3 3 4 4 4 5 6 7 8 9 11 14 14 12 13 15 16 17 16 16 17 18 18 18 16 17 18 18 18 18 18 17 17 16 16 16 17 16 15 14 14 14 13 14 16 17 18 18 17 16 15 14 14 13
12 12 10 10 12 9 8 10 7 7 9 7 8 9 10 10 9 9 9 8 9 9 8 6 7 8 7 6 6 6 5 5 4 3 2 2 2 2 1 1 3 4 5 4 3 4 6 7 7 6 7 9 11 12 13 11 10 13 14 15 16 16 18 19 20 20 19 18 18 19 19 20 20 20 19 17 17 16 17 18 18 17 16 15 16 16 16 17 17 17 17 17 16 16 16 15 14
11 11 10 9 11 9 9 9 7 4 5 6 8 9 10 9 9 8 8 8 9 9 8 8 6 7 8 6 5 5 5 4 4 3 2 1 1 4 5 4 5 5 5 3 2 3 6 8 7 7 9 11 11 11 12 11 11 12 12 14 16 17 19 19 20 22 22 21 21 20 21 21 22 21 20 19 17 17 18 19 20 19 18 17 17 17 18 18 18 17 17 18 18 16 14 15 16
10 9 10 9 9 9 9 8 7 6 4 7 11 8 9 9 9 9 8 9 10 10 10 9 8 8 8 6 6 4 3 4 4 2 2 2 1 2 5 5 4 3 2 2 1 1 2 3 4 6 9 11 10 10 11 11 12 12 13 14 15 16 17 17 19 21 22 23 22 22 23 24 23 22 20 19 18 18 19 20 20 20 19 19 18 18 19 19 19 19 18 18 18 16 13 16 17
9 9 9 9 10 11 8 7 8 6 4 8 12 7 7 8 8 8 8 9 11 12 12 12 11 10 9 7 6 4 4 3 3 1 2 1 1 1 2 3 3 3 3 1 1 1 1 2 3 5 7 9 9 8 8 10 11 12 12 13 12 13 14 15 18 20 21 24 23 23 24 24 23 22 20 19 18 18 20 20 20 20 20 21 20 20 21 21 20 20 20 18 18 16 15 16 17
10 10 10 10 12 10 8 10 10 6 5 10 13 8 5 6 7 7 6 8 11 12 13 13 13 12 12 10 8 6 5 3 1 2 5 5 4 3 3 4 6 5 5 3 3 4 3 4 5 5 5 6 7 7 7 8 9 9 10 12 11 11 12 13 17 19 20 23 23 24 24 23 23 22 19 18 18 18 18 20 20 19 20 22 21 20 21 22 21 21 20 19 18 17 15 15 16
9 11 9 10 14 10 11 15 11 7 7 11 11 7 7 6 7 7 6 8 10 11 12 13 13 13 13 13 12 10 8 7 6 6 7 9 8 6 5 6 7 6 6 6 7 8 7 7 7 6 6 6 6 7 6 5 6 6 8 11 12 12 13 14 15 16 18 20 21 22 24 24 23 22 19 17 17 17 17 19 19 18 19 21 22 21 21 22 22 22 21 20 19 18 16 15 15
8 11 9 7 12 11 13 15 11 7 7 10 10 6 7 8 6 7 7 10 12 11 12 13 13 14 14 14 13 12 11 10 9 10 10 10 10 9 8 8 7 8 8 7 8 9 9 9 9 8 7 6 7 6 5 3 4 6 7 9 11 12 13 13 13 14 15 17 18 18 22 23 21 21 19 16 16 16 16 17 19 19 20 21 22 22 23 24 23 22 21 20 19 18 17 15 14
7 13 12 8 9 11 13 13 10 6 6 9 10 7 6 8 6 7 8 11 13 11 10 11 13 15 16 16 15 14 13 11 10 11 12 11 10 10 11 10 9 9 9 8 8 9 10 10 9 9 8 7 6 5 5 3 4 6 7 8 9 10 11 11 11 11 12 14 16 16 19 21 18 18 17 16 17 17 16 17 19 20 21 22 23 23 23 23 22 20 19 19 19 18 18 16 13
5 11 13 10 9 9 11 10 8 7 6 9 11 9 7 8 7 8 9 10 12 11 10 11 14 16 16 17 16 16 15 14 14 13 13 12 11 11 11 10 10 10 9 9 9 9 10 10 9 9 8 7 6 5 5 5 5 7 7 7 7 8 9 8 8 9 10 13 13 12 15 15 12 13 15 17 18 18 17 17 18 20 21 21 22 22 21 19 19 18 18 20 19 18 17 16 14
7 9 9 8 7 6 7 8 7 7 7 10 13 12 8 7 8 8 8 8 10 9 9 10 13 14 14 15 15 14 14 15 15 15 15 14 13 12 11 11 10 10 9 8 8 8 8 8 8 8 8 7 7 6 6 7 8 9 7 6 6 7 7 7 7 5 5 7 5 4 8 9 8 11 14 16 17 17 17 17 18 20 20 20 21 21 20 19 19 19 19 19 17 16 16 15 15
9 9 8 7 7 6 5 7 7 7 8 10 15 14 9 7 9 6 5 6 8 9 8 9 11 13 13 12 13 13 13 12 13 14 15 14 13 13 12 12 11 9 8 7 7 7 8 8 8 7 7 7 6 6 6 6 7 9 8 7 7 8 6 6 6 2 1 1 2 2 5 7 8 11 14 15 17 18 18 19 19 20 20 20 21 21 20 19 18 18 19 18 16 16 15 15 16
9 10 9 8 8 6 6 6 7 8 9 9 13 11 9 8 7 6 7 6 7 8 9 10 11 12 12 11 11 11 11 11 12 14 15 15 15 15 14 14 12 11 10 10 10 9 9 10 9 8 9 8 6 6 6 5 5 7 8 8 8 8 6 4 6 4 3 2 2 3 5 6 8 10 12 15 17 18 20 20 20 21 22 22 21 21 20 20 18 17 17 18 18 17 16 15 16
11 11 10 10 8 7 9 10 9 8 6 7 11 10 7 4 7 9 10 8 9 10 11 12 12 13 13 12 12 11 11 12 13 15 16 16 16 15 14 13 12 12 12 11 11 11 11 10 10 9 10 10 8 7 7 7 7 7 8 8 8 9 8 6 6 6 5 6 7 8 7 7 9 11 13 15 17 18 19 20 21 22 23 23 22 21 20 20 18 17 17 19 19 18 18 18 18
12 11 12 11 9 9 10 10 11 8 4 6 8 10 7 6 8 10 11 10 12 14 14 14 13 13 13 12 12 12 12 14 15 15 16 16 16 14 13 12 12 12 12 12 12 13 13 11 10 9 9 10 10 10 10 10 10 10 9 8 8 8 9 8 8 8 8 9 10 12 10 8 10 12 14 15 16 17 18 19 20 21 24 24 21 20 19 18 17 17 17 19 19 17 18 19 19
12 11 11 11 9 9 9 9 12 11 7 7 7 7 6 7 8 11 13 13 14 14 14 14 13 12 12 12 12 12 13 13 13 13 14 14 14 13 12 12 12 12 12 12 13 13 13 12 11 10 10 10 11 11 13 13 13 12 12 10 9 8 9 10 9 9 10 11 11 11 11 10 9 11 14 15 15 17 19 20 20 21 23 24 21 18 17 17 18 19 18 19 18 17 18 19 18
10 10 11 11 10 9 5 3 4 7 9 7 5 2 3 6 10 13 14 14 14 14 13 13 12 11 11 12 12 12 12 11 11 12 12 13 12 12 12 12 13 13 13 13 13 13 12 12 12 12 12 12 12 12 13 14 14 14 14 12 10 9 10 10 10 11 12 11 10 11 11 11 11 12 15 16 16 17 19 21 21 21 21 22 21 19 18 19 21 21 20 19 18 17 17 18 18
7 10 10 5 7 9 6 2 3 6 8 6 4 4 5 6 8 11 12 12 13 12 12 12 12 11 11 13 12 11 11 11 12 12 13 13 13 12 13 13 13 13 13 13 13 13 13 13 13 12 12 11 11 11 11 12 13 14 13 12 10 9 11 10 11 13 12 11 11 11 12 13 14 14 15 16 15 18 20 21 22 22 21 21 20 20 20 20 21 21 20 18 17 17 17 17 18
6 10 10 4 1 6 8 6 5 8 9 5 6 9 9 7 7 10 13 11 12 11 10 11 11 11 12 13 11 10 11 11 11 12 12 14 15 14 14 14 13 13 13 12 12 13 14 14 14 13 13 13 12 12 12 12 13 14 13 12 10 9 11 12 12 12 11 10 11 11 12 13 14 14 15 15 15 17 21 22 22 22 21 20 20 21 21 20 20 20 18 17 17 18 17 17 18
8 9 10 6 5 7 9 8 8 10 8 6 9 11 9 8 8 12 15 13 13 12 10 9 9 10 11 11 10 10 10 10 11 11 11 12 14 14 14 14 14 12 12 12 12 12 12 13 13 13 13 13 13 13 14 14 14 15 15 14 11 10 11 13 13 12 10 10 11 11 11 11 12 13 14 14 14 17 20 22 23 22 21 21 21 22 23 22 20 19 18 17 17 18 18 17 17
9 9 10 8 7 7 8 7 7 10 8 7 9 10 8 6 8 14 16 15 15 13 10 8 9 10 10 9 9 9 10 10 11 12 11 11 12 12 12 12 12 11 11 11 11 11 11 11 12 12 12 12 12 13 13 13 13 14 14 14 13 11 10 11 12 12 11 10 11 11 10 10 11 13 15 16 16 17 21 22 23 22 22 22 23 23 22 20 19 18 18 17 16 17 18 17 17
9 9 11 10 6 5 7 5 4 7 8 7 8 8 6 4 7 14 17 15 15 14 12 10 10 11 10 9 9 9 10 10 11 11 11 11 10 11 11 11 11 11 11 10 10 11 11 11 11 12 12 12 12 12 12 12 11 11 12 13 13 11 9 9 11 11 10 10 10 11 11 10 11 13 14 16 17 19 21 22 23 22 22 22 23 22 20 18 18 19 18 16 16 17 17 17 17
12 9 11 12 8 7 8 6 3 5 6 7 8 8 5 4 1 10 17 15 14 16 16 14 13 12 11 10 9 10 10 10 10 10 10 10 10 11 11 11 12 13 13 12 11 11 11 11 12 13 13 13 13 12 12 12 11 10 11 11 11 10 8 7 9 10 10 10 11 11 12 11 12 13 13 15 17 18 20 21 22 21 19 20 21 21 20 19 19 19 18 17 17 18 18 18 17
Wind_Direction
207 202 193 189 160 158 200 222 243 210 231 261 252 265 164 154 309 260 227 165 222 54 14 333 283 255 260 324 351 57 41 20 12 9 78 93 134 146 153 160 162 160 156 161 170 168 167 172 174 181 184 185 187 187 188 185 184 183 184 185 187 190 187 180 162 147 137 129 127 123 115 118 120 113 106 105 108 114 119 124 127 125 119 115 112 111 110 110 110 109 109 108 108 107 108 107 106
186 186 186 169 153 187 213 210 256 234 227 260 248 246 108 130 213 223 189 42 15 9 358 352 17 230 264 308 303 93 59 43 42 58 97 125 133 146 157 160 163 161 157 161 169 167 168 173 175 181 183 186 188 189 189 186 186 184 186 186 186 186 182 175 161 151 142 136 133 126 120 124 124 115 110 109 109 112 119 127 129 127 123 119 115 114 113 113 112 112 110 109 107 106 105 104 104
179 173 167 165 164 223 234 205 252 254 240 266 257 167 113 202 206 139 59 26 7 346 328 344 119 144 250 236 313 55 71 54 61 88 111 128 137 150 154 159 162 158 158 162 167 167 169 173 174 181 184 186 189 191 189 186 186 185 186 184 183 181 177 172 161 154 145 142 137 131 129 127 123 117 113 112 112 111 116 126 130 128 127 123 120 119 116 116 115 113 110 107 106 105 105 103 101
177 171 165 185 202 222 226 220 247 258 252 265 276 100 125 219 137 97 57 7 355 337 217 270 143 108 299 48 63 62 77 66 74 101 120 135 150 151 152 160 160 157 158 160 163 165 169 172 173 180 184 187 189 190 188 187 187 186 185 182 180 177 173 169 162 157 149 147 141 138 138 130 123 118 115 111 111 112 117 126 131 130 130 129 130 130 126 122 119 112 107 107 107 106 104 102 99
171 173 168 197 236 230 231 240 246 247 252 274 301 75 90 118 89 69 20 354 348 3 238 258 127 115 64 42 14 47 76 80 92 107 130 142 153 151 155 160 159 158 158 158 161 165 170 172 173 180 184 187 188 187 187 187 187 187 184 181 178 175 172 168 165 159 154 151 147 148 144 134 126 122 119 113 111 115 119 125 130 132 132 132 135 134 126 120 114 108 107 109 108 105 103 102 98
159 171 172 203 258 281 252 241 235 238 247 284 294 70 93 107 51 358 343 348 352 17 324 260 255 128 111 68 51 57 65 106 102 122 137 146 151 152 156 156 160 160 158 160 163 169 172 173 176 181 186 186 186 187 187 187 187 188 183 180 178 175 172 169 166 160 157 156 154 156 149 139 129 125 125 119 115 117 121 126 130 133 132 132 131 124 116 113 109 106 107 106 105 103 101 98 95
162 178 183 206 230 224 245 242 244 244 219 275 283 5 93 50 351 327 325 340 165 164 322 279 247 210 116 117 84 61 59 91 112 146 142 150 150 152 156 155 160 159 159 161 164 171 172 175 181 183 186 185 186 187 187 188 188 188 183 180 179 175 173 170 165 160 160 161 161 161 153 144 132 126 130 127 121 120 126 131 133 133 130 129 125 116 113 112 110 108 106 104 103 101 99 98 97
169 185 197 222 219 205 244 247 249 260 127 48 287 294 300 316 325 307 306 299 216 194 252 218 225 219 113 130 100 76 72 88 129 143 139 147 146 151 153 155 158 157 159 161 168 175 174 177 182 184 185 184 184 186 187 189 188 187 183 181 179 175 173 168 163 162 164 165 164 162 155 148 136 129 133 133 125 127 134 136 137 134 130 126 120 115 113 114 113 111 108 106 105 102 102 101 100
178 201 206 233 241 217 240 246 245 257 255 268 273 268 284 299 302 290 284 268 253 240 236 178 211 207 123 120 99 101 89 96 129 135 138 142 145 149 148 156 159 157 156 161 174 177 175 177 182 182 181 183 181 183 186 188 187 185 184 183 179 174 171 167 164 165 167 167 165 162 157 151 140 133 136 133 126 130 137 138 140 137 133 126 119 116 116 118 118 115 112 109 107 105 103 102 101
188 216 226 232 244 237 235 238 236 242 247 260 268 275 290 292 289 274 266 262 221 208 188 161 193 149 127 121 102 113 107 115 134 137 140 141 147 146 146 158 162 159 157 166 177 174 175 176 179 180 177 179 177 181 184 184 184 184 184 183 179 172 169 166 166 168 169 167 165 166 159 151 143 140 141 136 130 132 137 140 143 142 137 129 122 118 119 121 119 117 114 111 108 104 101 100 100
196 207 236 239 233 240 240 236 226 223 216 242 250 287 311 296 288 266 250 235 195 189 168 173 171 133 129 114 107 125 125 132 143 145 145 143 146 146 148 158 161 160 160 172 175 171 176 176 176 176 174 175 176 179 177 176 178 179 180 178 173 166 164 164 166 168 169 168 167 167 157 150 148 148 146 140 136 135 138 141 146 146 141 136 127 121 122 121 119 117 114 113 110 104 100 98 96
217 191 207 238 237 239 251 263 256 262 222 215 168 31 333 293 271 250 225 198 187 180 168 181 163 142 140 116 120 138 138 144 149 152 150 146 148 150 151 154 159 161 163 172 176 175 174 172 170 169 172 173 174 171 165 165 165 165 164 160 153 148 150 154 156 160 164 167 165 161 152 151 154 154 153 147 143 142 142 144 149 152 149 143 133 125 124 122 121 118 116 113 108 104 100 97 95
229 203 208 238 248 251 260 269 272 252 199 149 46 2 330 283 253 245 210 173 176 168 152 158 149 143 126 111 129 150 150 151 155 157 153 151 152 153 154 156 160 163 166 172 180 181 174 171 168 165 170 172 170 164 158 157 153 150 147 141 137 135 136 136 138 142 147 153 159 158 154 155 160 161 161 154 149 149 149 149 153 157 157 153 142 132 127 126 126 123 120 114 106 103 100 98 96
224 226 237 241 238 255 253 251 224 204 166 90 32 351 335 307 321 253 197 164 147 136 128 129 143 137 125 129 151 168 163 156 159 158 154 156 155 155 157 158 161 165 171 177 183 184 179 175 172 170 169 168 165 159 155 152 148 142 137 135 133 130 129 128 128 128 130 135 148 157 157 159 167 168 167 163 156 154 155 157 158 159 162 162 156 142 134 133 130 129 126 116 108 103 102 100 98
219 228 244 249 240 231 225 231 224 205 119 73 26 356 357 82 12 232 206 154 108 108 130 127 141 138 145 164 170 171 167 156 158 156 156 158 155 159 160 161 166 171 178 182 185 186 182 176 175 174 168 168 164 158 155 149 145 141 138 135 131 128 126 125 125 125 127 127 134 149 155 162 173 173 174 172 164 159 159 164 164 162 162 167 172 156 143 140 136 134 130 121 114 107 103 101 99
213 227 230 243 240 212 199 190 198 202 102 72 35 9 26 101 19 314 22 102 112 117 133 112 76 87 116 109 139 166 165 152 155 156 158 157 156 161 163 169 170 176 185 185 188 189 185 177 175 172 167 170 166 165 162 151 147 145 143 139 133 132 131 128 126 126 126 124 126 133 137 145 163 171 178 179 172 168 165 169 171 168 165 169 183 175 157 148 143 139 131 125 122 116 108 103 101
200 227 229 231 227 204 185 180 179 151 96 66 41 20 13 93 73 56 87 127 122 115 103 94 85 85 92 90 131 164 161 150 155 155 156 159 162 165 168 179 179 185 191 187 189 188 183 175 171 170 169 171 172 171 165 159 156 150 149 147 142 141 140 137 134 134 131 129 133 132 134 142 159 176 184 184 178 174 171 173 175 174 172 173 187 192 176 157 151 143 133 130 127 122 112 105 103
191 220 225 224 220 201 182 180 145 62 71 37 30 21 7 51 90 100 141 135 123 114 104 100 92 88 94 108 141 162 155 150 154 153 158 163 167 171 174 183 187 192 191 184 183 182 180 176 175 174 169 169 174 172 165 166 162 153 156 156 152 152 153 151 150 149 137 137 145 147 157 166 176 186 202 204 188 177 176 179 180 179 176 177 191 199 193 172 158 148 136 133 132 126 115 105 102
204 222 222 227 222 167 103 102 37 13 2 8 18 14 5 17 38 285 193 149 140 122 110 118 111 104 113 127 146 153 148 149 153 156 162 167 174 177 178 183 188 193 190 184 180 182 188 185 182 175 168 168 172 172 168 172 169 161 167 169 166 169 171 168 165 165 156 154 158 163 176 181 179 182 202 220 206 183 180 185 186 182 178 186 200 200 199 187 164 153 145 141 140 131 117 103 98
215 223 226 228 224 200 183 243 290 340 340 347 3 356 355 22 359 293 185 148 159 135 126 146 142 139 138 139 145 146 148 151 154 161 166 172 181 182 181 182 187 194 193 191 186 186 191 189 186 181 179 177 174 176 174 177 179 170 176 184 183 186 186 183 181 180 181 178 172 175 183 186 185 188 198 217 220 194 185 188 188 187 185 192 204 202 201 195 174 158 153 156 153 140 129 116 110
209 214 234 232 216 238 209 217 252 328 336 331 338 336 351 16 347 275 166 151 157 138 139 148 147 154 151 146 146 148 151 155 161 167 169 175 183 181 179 180 184 197 199 198 192 189 193 193 191 190 190 187 186 190 187 188 191 183 189 197 196 197 198 202 201 195 194 192 188 186 186 190 193 195 195 205 214 198 196 196 191 192 191 191 198 201 200 197 188 175 167 168 163 152 153 151 145
212 215 238 248 227 240 193 171 224 320 315 315 321 334 356 344 345 194 209 154 101 101 124 129 139 155 153 147 145 150 156 161 167 169 173 180 184 179 174 178 186 201 206 204 199 197 200 199 195 194 195 195 197 202 200 198 201 198 201 207 206 205 208 214 212 206 206 202 199 197 188 187 194 196 191 190 192 190 203 207 197 196 194 193 194 196 199 197 190 186 180 176 172 168 170 166 155
224 219 228 238 238 238 201 179 227 299 294 301 318 338 332 305 112 131 272 44 60 64 106 136 141 144 144 143 145 153 163 167 166 170 178 181 182 178 173 179 189 202 210 207 201 201 205 203 197 198 202 204 203 205 203 201 204 205 209 212 211 210 211 216 214 211 213 206 202 203 191 184 191 198 192 187 185 187 199 206 210 209 200 198 192 189 198 195 188 188 185 183 181 175 179 173 159
226 229 211 226 236 236 236 238 252 274 282 291 310 315 295 276 111 144 156 63 32 88 130 144 141 135 136 140 147 158 165 164 165 171 175 175 180 184 180 179 189 200 207 209 203 203 205 203 201 203 206 207 205 204 203 205 208 209 213 215 213 211 210 213 213 211 214 209 205 206 197 185 188 196 194 191 188 190 202 203 217 219 202 197 192 188 196 196 191 192 190 189 182 177 186 180 167
224 236 216 219 228 228 234 240 245 255 270 278 290 287 272 268 172 164 138 113 36 120 137 145 136 133 136 142 153 162 164 161 167 174 175 178 182 188 189 183 193 201 203 210 208 203 202 203 204 204 205 205 204 204 204 207 211 214 216 215 212 212 211 211 212 212 214 211 208 207 201 190 187 193 193 196 198 202 210 204 209 215 202 201 197 190 194 198 197 197 194 191 184 180 189 188 182
213 226 229 223 223 220 221 226 233 243 257 264 270 258 213 147 212 159 129 155 152 139 143 138 133 135 138 147 158 160 157 159 168 175 175 182 182 186 193 189 195 203 204 210 207 203 203 206 208 206 207 209 208 206 207 209 211 215 218 216 212 211 210 210 211 213 212 211 211 208 201 196 193 195 197 202 210 213 213 207 208 213 211 216 210 199 199 201 200 203 200 195 190 185 188 198 201
203 221 229 231 232 225 225 231 235 241 248 252 254 242 164 164 222 158 137 174 158 151 146 135 137 139 143 149 152 150 151 161 169 173 174 182 188 188 190 195 203 209 210 208 206 207 206 205 206 207 210 210 210 208 211 215 214 216 220 222 216 208 211 212 212 213 211 213 214 209 202 201 202 200 203 207 213 214 210 209 206 208 215 220 220 216 214 208 203 205 204 199 196 194 194 205 209
201 214 223 228 235 231 232 235 232 234 236 236 239 224 167 191 221 122 130 160 158 154 144 140 142 139 144 146 141 140 149 164 172 176 181 183 189 189 188 201 212 214 223 217 211 212 207 202 200 207 212 210 214 216 220 224 219 219 221 228 220 208 212 213 214 212 211 217 216 210 207 205 207 206 210 212 211 211 207 205 202 205 212 214 217 219 221 218 212 210 210 209 208 208 207 213 214
202 206 221 210 215 224 222 222 217 219 217 216 226 204 177 179 121 92 121 146 156 158 142 142 142 137 141 138 133 137 149 166 174 178 184 181 183 184 190 209 216 217 236 232 221 219 215 211 207 210 216 215 217 222 229 231 224 223 222 227 223 212 214 214 217 216 213 221 215 210 212 210 210 212 217 216 211 209 204 200 199 203 210 213 213 213 217 222 220 218 216 216 215 213 213 217 219
207 211 237 200 195 210 201 201 201 208 215 220 230 206 167 134 83 83 134 152 167 167 146 143 139 136 139 129 129 140 152 168 175 178 177 177 188 174 179 213 211 212 226 223 219 221 221 221 217 216 218 216 218 219 222 226 225 226 223 225 224 215 216 217 221 222 219 223 216 211 215 214 215 218 221 220 216 212 203 197 197 200 206 212 214 213 213 216 221 223 220 218 217 215 217 222 226
203 202 229 223 207 187 173 182 192 195 198 213 234 219 138 103 75 78 142 162 180 164 142 141 137 135 136 124 125 141 157 173 177 180 172 174 193 155 117 77 196 206 218 214 210 209 213 221 221 220 222 219 225 227 223 225 229 229 229 231 228 219 219 223 226 227 227 226 217 212 215 218 221 224 226 225 221 218 209 197 196 199 203 209 214 214 211 212 218 221 219 218 218 219 221 225 227
202 195 205 216 213 164 151 173 193 193 181 198 228 213 115 88 66 71 138 162 171 156 141 138 136 133 136 127 125 141 158 176 178 181 177 171 179 158 129 339 303 240 228 228 217 202 203 218 224 225 230 229 231 236 232 235 239 236 239 238 233 225 221 226 230 232 232 229 219 213 216 221 226 227 228 228 226 225 217 204 199 202 204 208 211 212 210 211 214 217 218 217 217 219 219 220 222
198 204 199 194 204 171 149 168 192 200 176 187 224 232 102 83 65 73 125 159 164 156 140 134 139 142 146 139 131 144 162 179 180 184 188 172 170 175 190 281 312 316 248 232 222 209 201 216 227 228 236 239 237 240 240 243 244 239 243 244 242 238 232 229 233 235 232 228 222 217 218 222 227 230 228 227 227 227 223 215 208 205 204 207 209 210 209 210 213 215 217 218 219 219 218 222 227
187 207 204 185 197 182 153 157 176 194 190 187 211 227 87 86 74 74 91 153 169 156 137 136 148 152 153 147 139 145 164 189 201 200 201 196 195 184 183 229 272 313 283 233 225 225 215 220 230 232 236 239 243 246 245 245 245 243 248 253 251 248 243 234 231 235 233 229 225 221 221 223 227 228 224 222 224 225 223 221 218 211 206 205 205 205 205 209 215 217 219 220 221 220 220 224 228
183 195 193 180 191 191 165 155 162 184 195 188 184 140 95 90 74 67 62 88 137 132 132 143 149 150 152 151 144 143 157 188 213 216 208 207 217 187 163 176 217 294 323 244 230 230 236 244 244 243 241 242 246 246 247 250 252 251 251 255 253 249 248 240 233 235 236 233 228 224 224 227 229 227 225 222 220 221 221 219 218 214 208 203 202 198 198 206 214 218 220 221 221 221 221 222 220
182 185 188 179 182 190 162 138 144 181 190 186 175 142 103 85 71 63 57 65 87 94 112 137 145 148 151 150 145 145 160 181 200 208 210 199 202 222 181 187 237 297 322 293 261 244 244 253 252 250 247 245 247 249 258 264 263 259 254 256 256 253 252 248 244 244 242 238 231 227 226 229 230 228 229 227 221 219 220 218 216 216 212 203 200 196 195 204 211 216 218 218 220 220 220 221 215
177 184 191 181 178 178 153 129 124 178 182 163 154 129 97 82 75 67 68 74 75 80 92 109 131 143 142 141 145 149 159 182 206 208 208 176 177 236 257 273 293 315 318 305 286 266 258 257 256 256 248 244 249 259 271 274 269 265 262 262 263 261 259 258 256 252 248 245 240 234 230 230 231 228 227 225 221 220 220 219 216 216 216 208 202 197 197 203 207 210 211 211 214 216 219 222 214
181 189 187 180 183 168 146 135 125 167 178 142 142 123 93 85 83 73 75 80 72 74 83 84 99 122 122 112 116 138 168 202 230 214 179 139 178 278 300 303 310 327 325 303 268 267 269 269 267 263 261 259 261 269 276 279 276 272 271 270 268 267 266 262 258 255 252 250 250 245 235 231 231 230 226 221 219 221 221 221 219 218 217 213 208 203 201 204 204 206 207 209 213 213 217 222 213
189 193 187 184 175 143 125 125 133 171 188 156 155 133 96 86 83 77 73 80 81 80 81 78 83 101 107 96 88 102 155 198 233 211 149 158 170 298 302 296 310 345 1 341 306 279 274 281 284 273 274 279 277 274 277 281 276 271 273 276 276 274 271 265 260 258 253 250 252 251 240 234 234 233 227 220 216 219 220 220 221 220 218 216 213 210 207 205 205 207 209 212 215 209 209 217 212
196 192 191 185 167 155 148 138 140 164 189 162 158 140 112 106 94 83 78 92 97 94 90 84 83 89 96 101 91 81 99 143 212 191 106 138 131 79 336 326 9 46 56 41 314 284 239 251 270 268 277 288 288 282 282 285 281 279 282 284 285 282 276 270 265 263 256 249 249 248 242 238 238 238 232 224 218 220 221 220 221 220 220 220 217 214 213 209 209 211 210 210 209 203 203 211 211
196 196 198 183 172 174 152 139 140 147 167 166 159 150 141 131 114 102 98 108 103 99 99 89 85 87 88 92 90 82 86 102 123 65 62 63 64 72 64 59 62 55 41 21 334 324 313 297 291 281 280 281 279 284 290 290 291 298 300 297 297 292 284 277 271 269 262 252 248 247 243 239 241 242 238 233 227 224 224 222 220 219 219 222 219 214 212 210 212 214 209 206 203 199 201 209 211
189 201 213 184 173 163 129 139 151 153 168 178 181 180 165 143 118 121 126 116 102 96 99 89 83 85 83 81 80 80 84 87 86 71 65 71 71 72 68 60 55 46 34 18 2 357 347 334 328 320 312 301 297 305 305 293 293 304 307 303 303 297 287 280 277 279 271 260 256 252 243 239 243 245 243 241 237 230 226 221 219 218 219 222 220 214 212 212 213 213 210 206 205 202 201 206 210
187 190 209 189 172 159 142 157 171 174 172 178 202 222 171 155 129 128 132 116 105 98 97 90 83 80 78 77 75 76 81 87 86 75 70 71 68 62 56 44 39 43 39 24 15 12 2 352 346 343 344 341 336 335 333 314 304 305 300 295 298 299 291 285 282 279 270 262 262 253 241 240 243 245 243 243 243 237 228 222 219 222 223 223 222 216 213 215 215 213 211 208 205 204 203 205 207
182 172 189 193 175 164 162 176 189 184 152 162 205 238 186 166 144 134 136 116 108 103 97 92 84 79 76 77 77 75 76 80 79 72 66 63 58 53 49 45 43 45 40 28 24 25 19 16 11 4 3 3 353 350 351 337 309 304 299 294 301 308 302 298 288 273 265 262 257 244 238 238 235 235 239 240 243 240 234 228 225 226 226 225 225 220 214 214 215 212 209 206 203 204 205 202 203
153 158 186 193 189 181 176 189 196 182 167 176 201 219 195 164 145 146 146 123 113 110 101 86 78 75 74 74 76 75 73 73 73 72 70 67 61 56 54 54 52 48 43 38 34 30 26 26 20 6 1 6 4 3 0 344 328 318 301 287 302 315 313 310 294 277 276 269 255 239 238 239 227 223 232 236 238 240 237 233 229 227 226 225 225 221 213 212 213 208 206 209 205 203 206 202 200
124 144 181 187 199 195 187 202 192 176 199 199 189 200 205 162 149 163 157 132 122 118 105 90 81 77 72 68 69 71 71 71 71 75 77 74 69 68 67 64 59 53 47 45 40 31 26 24 17 1 353 2 2 353 356 352 344 341 325 295 296 309 316 314 300 298 300 279 252 233 252 255 238 227 228 229 233 238 237 232 229 228 225 224 223 217 211 210 212 210 213 220 213 202 206 205 200
137 158 177 180 197 194 196 215 193 181 211 201 180 193 216 179 157 156 145 132 130 130 119 105 94 84 74 67 66 67 69 68 70 77 81 78 74 73 71 67 65 60 50 43 36 26 17 13 13 4 354 359 353 337 350 358 338 332 328 315 303 302 312 308 292 295 67 351 358 346 285 266 248 238 233 230 231 234 233 229 230 231 226 222 218 211 206 207 211 214 218 223 217 208 211 211 207
170 181 183 183 188 186 192 199 197 202 209 184 168 189 219 197 163 138 138 136 124 128 126 113 100 88 79 71 69 68 67 67 70 75 76 75 74 71 67 65 64 58 49 40 33 26 18 11 8 2 352 353 353 338 342 344 324 318 314 307 300 294 293 279 258 235 196 235 285 295 284 268 256 249 244 241 235 230 228 226 230 232 227 222 217 211 207 207 209 213 216 218 216 213 213 213 212
196 189 182 187 179 183 196 192 198 208 193 156 160 188 210 161 121 129 141 131 110 109 111 107 99 90 81 74 72 69 67 68 69 69 66 66 66 62 57 54 50 44 38 33 29 24 17 9 2 355 349 346 347 340 329 319 313 311 302 295 289 284 286 272 233 224 231 241 240 243 249 255 261 255 248 248 244 234 228 227 230 232 228 223 217 211 208 208 210 212 214 217 216 212 212 213 213
200 191 185 191 181 182 195 191 195 198 157 131 163 188 183 133 118 126 126 115 111 107 100 97 94 89 83 77 73 69 67 67 66 64 61 61 59 53 46 39 33 29 25 21 18 14 6 360 354 350 344 339 337 333 326 320 312 304 297 288 277 269 273 265 235 222 233 238 235 238 239 243 258 257 250 252 253 244 234 231 232 232 231 228 221 214 208 207 210 210 212 216 214 210 213 215 214
199 201 194 197 194 186 192 196 198 192 155 128 163 189 177 156 130 115 115 115 112 105 98 96 92 90 88 79 71 66 63 62 61 58 55 53 50 44 35 29 24 19 16 15 12 9 3 358 359 356 351 345 339 333 328 324 317 310 303 290 276 260 250 247 238 231 235 239 238 240 241 244 252 252 250 255 256 247 238 236 235 232 232 232 227 220 214 212 213 210 212 217 213 206 210 213 212
196 208 205 204 205 189 178 209 196 170 151 134 153 162 104 124 117 115 125 123 112 105 102 100 94 93 91 77 67 63 60 58 57 54 49 46 42 37 31 26 22 18 16 15 14 11 6 4 7 5 1 353 343 335 327 321 316 313 310 299 284 268 253 241 233 233 236 240 242 239 236 236 235 237 245 251 251 245 237 235 235 231 231 232 229 226 222 221 221 214 209 214 210 202 206 209 209
178 204 204 200 219 192 158 108 81 148 165 150 154 138 108 130 134 137 146 132 122 119 107 102 99 97 90 75 66 63 61 59 57 53 49 47 44 39 35 28 22 19 16 15 13 10 6 5 4 1 359 352 342 335 327 320 312 309 310 304 287 272 267 257 241 237 237 237 236 231 228 228 227 230 240 246 249 245 236 234 237 236 234 234 231 230 228 225 225 217 205 206 206 200 204 207 207
180 200 188 134 233 194 177 172 159 183 188 164 175 167 153 169 158 153 161 148 141 140 120 110 104 94 84 74 67 66 64 61 56 52 49 49 48 42 38 32 25 19 15 12 10 8 6 3 359 354 351 344 338 333 327 323 317 314 316 309 289 266 263 261 250 241 237 236 235 232 231 233 227 226 233 241 249 245 235 234 237 237 237 237 233 231 230 224 222 217 205 201 202 201 203 204 206
214 200 178 168 187 183 192 195 184 194 186 157 176 173 171 190 167 159 168 159 153 154 139 124 108 93 87 80 74 69 65 59 54 49 44 45 47 40 35 33 28 22 16 13 11 11 9 6 0 355 349 341 335 330 325 323 322 322 323 320 303 271 257 258 257 252 246 244 246 244 242 241 233 226 227 235 243 242 235 233 233 232 234 236 233 232 230 222 217 212 204 200 202 204 205 206 207
220 202 181 196 206 186 193 198 197 202 187 161 173 178 190 196 163 165 169 156 155 155 142 130 109 98 97 90 83 73 65 59 52 49 47 46 43 35 28 25 21 15 14 16 14 12 12 12 9 2 356 346 334 328 323 319 321 321 321 321 314 291 265 260 263 260 257 257 254 250 250 249 242 233 228 231 236 235 233 232 230 229 231 233 233 232 227 218 211 209 207 204 204 207 208 209 211
200 198 186 190 196 187 185 190 223 217 194 176 178 185 184 143 144 164 160 152 157 153 141 134 119 109 105 95 90 79 66 60 53 50 51 45 36 29 23 20 18 17 23 28 20 13 12 12 12 9 1 352 339 330 324 320 320 319 315 315 315 304 280 272 273 267 264 265 259 253 253 252 246 240 235 236 235 232 231 231 230 231 232 234 235 232 224 212 208 208 208 207 207 209 210 210 213
188 194 194 189 187 186 178 176 205 215 203 187 186 185 151 76 83 162 155 155 157 147 139 133 124 117 109 97 91 80 69 64 58 53 48 39 33 30 27 30 35 36 41 41 24 13 15 12 12 14 8 358 348 337 330 331 329 321 315 312 310 303 287 283 287 282 277 271 264 260 258 256 252 248 244 243 240 237 234 232 232 235 237 237 237 237 230 218 211 208 206 207 209 209 210 209 212